Content
SEND FEEDBACK

Daily
Averages
Monthly
Summary
United States of America

WALNUT GROVE, ALABAMA


Home > North America > United States > Alabama
Elevation: 85 feet     Latitude: 34 04N     Longitude: 086 19W

WEATHER
 
SELECT A DAY
Number of Records: 209,352;   Date Range: 3/15/06 - 9/30/14
 
SHARE

PRINT THIS DATA

[ ← Previous Day ]
WEATHER ALMANAC - FEBRUARY 13, 2013
[ Next Day → ]
[ °C ]   °F
Weather ElementAverageHighLow
Temperature42.5 °F46.4 °F (6:15 am)35.6 °F (8:15 pm)
Dewpoint27.7 °F44.6 °F (12:35 am) (7:00 pm)
Humidity87.8 %100 % (12:35 am)76 % (1:55 pm)
Barometer29.85 in30.01 in (9:55 pm)29.69 in (3:35 am)
Wind Speed8.9 mph18.4 mph (1:55 pm)
Wind Gust25.3 mph (7:35 am)
Weather ElementAverage
Visibility7.9 mi
Wind DirectionWSW (244.9 °)

Weather ElementTotal
Precipitation0.05 in
Heating Degree Days24 (Base 65)
Averaged from 69 records on February 13, 2013
WEATHER CONDITIONS BREAKOUT
WIND DIRECTION BREAKOUT
WEATHER BY HOUR - FEBRUARY 13, 2013
[ °C ]   °F
Local TimeTemperatureDewpointHumidityBarometerVisibilityWind DirectionWind SpeedGust SpeedPrecipitationEventsConditions
12:35 AM44.6 °F44.6 °F100 %29.76 in7.0 miEast (100°)5.8 mphLight Drizzle
12:55 AM44.6 °F44.6 °F100 %29.75 in5.0 miEast (100°)5.8 mphOvercast
1:15 AM44.6 °F44.6 °F100 %29.74 in4.0 miEast (100°)5.8 mphOvercast
1:35 AM44.6 °F0.0 °F29.73 in4.0 miESE (120°)6.9 mphHaze
1:55 AM44.6 °F0.0 °F29.73 in4.0 miSE (130°)6.9 mphHaze
2:15 AM44.6 °F0.0 °F29.72 in3.0 miSE (130°)9.2 mphOvercast
2:35 AM44.6 °F0.0 °F29.71 in4.0 miSE (130°)4.6 mphHaze
2:55 AM44.6 °F0.0 °F29.70 in3.0 miSSE (150°)4.6 mphOvercast
3:15 AM44.6 °F0.0 °F29.70 in3.0 miSE (130°)8.1 mphRainLight Rain
3:35 AM44.6 °F0.0 °F29.69 in3.0 miSE (140°)4.6 mphRainLight Rain
3:55 AM44.6 °F0.0 °F29.71 in3.0 miSSE (160°)6.9 mph0.01 inLight Drizzle
4:15 AM44.6 °F0.0 °F29.70 in2.5 miSSE (150°)3.5 mphRainRain
4:35 AM44.6 °F0.0 °F29.71 in3.0 miSouth (170°)4.6 mphDrizzle
4:55 AM44.6 °F0.0 °F29.72 in2.5 miSouth (180°)6.9 mphRainLight Rain
5:15 AM44.6 °F0.0 °F29.71 in2.5 miSouth (170°)4.6 mph0.01 inLight Drizzle
5:35 AM44.6 °F0.0 °F29.73 in2.5 miSSW (200°)5.8 mph0.01 inRainLight Rain
5:55 AM44.6 °F0.0 °F29.73 in3.0 miSW (220°)6.9 mph0.01 inLight Drizzle
6:15 AM46.4 °F0.0 °F29.73 in3.0 miSW (230°)13.8 mph19.6 mphOvercast
6:35 AM44.6 °F0.0 °F29.73 in2.5 miWSW (250°)13.8 mph19.6 mphDrizzle
6:55 AM44.6 °F0.0 °F29.75 in4.0 miWSW (250°)13.8 mph24.2 mph0.01 inLight Drizzle
7:15 AM44.6 °F0.0 °F29.78 in3.0 miWSW (250°)16.1 mph21.9 mphLight Drizzle
7:35 AM44.6 °F0.0 °F29.77 in10.0 miWest (270°)16.1 mph25.3 mphOvercast
7:55 AM44.6 °F44.6 °F100 %29.77 in5.0 miWest (260°)16.1 mph23.0 mphOvercast
8:15 AM44.6 °F44.6 °F100 %29.79 in10.0 miWest (270°)17.3 mphOvercast
8:35 AM44.6 °F44.6 °F100 %29.79 in10.0 miWest (260°)16.1 mph24.2 mphOvercast
8:55 AM44.6 °F44.6 °F100 %29.80 in10.0 miWest (270°)16.1 mphOvercast
9:15 AM44.6 °F44.6 °F100 %29.81 in10.0 miWest (260°)15.0 mphOvercast
9:35 AM44.6 °F44.6 °F100 %29.81 in10.0 miWest (270°)13.8 mphOvercast
9:55 AM44.6 °F44.6 °F100 %29.81 in10.0 miWest (280°)15.0 mphOvercast
10:15 AM44.6 °F44.6 °F100 %29.82 in10.0 miWest (280°)16.1 mph23.0 mphOvercast
10:55 AM44.6 °F44.6 °F100 %29.82 in10.0 miWest (270°)11.5 mph15.0 mphOvercast
11:15 AM44.6 °F44.6 °F100 %29.83 in10.0 miWest (280°)13.8 mphOvercast
11:35 AM44.6 °F39.2 °F81 %29.84 in10.0 miWest (270°)15.0 mph23.0 mphOvercast
11:55 AM44.6 °F39.2 °F81 %29.83 in10.0 miWest (260°)12.7 mph19.6 mphOvercast
12:15 PM44.6 °F39.2 °F81 %29.83 in10.0 miWest (270°)15.0 mph23.0 mphOvercast
12:35 PM44.6 °F41.0 °F87 %29.82 in10.0 miWest (270°)11.5 mph16.1 mphOvercast
12:55 PM44.6 °F41.0 °F87 %29.82 in10.0 miWest (280°)13.8 mph17.3 mphOvercast
1:15 PM44.6 °F39.2 °F81 %29.82 in10.0 miWest (270°)13.8 mph18.4 mphOvercast
1:35 PM44.6 °F39.2 °F81 %29.83 in10.0 miWNW (300°)15.0 mph21.9 mphOvercast
1:55 PM44.6 °F37.4 °F76 %29.85 in10.0 miWNW (290°)18.4 mph25.3 mphOvercast
2:15 PM42.8 °F37.4 °F81 %29.86 in10.0 miWNW (300°)9.2 mph21.9 mphOvercast
2:35 PM42.8 °F35.6 °F76 %29.86 in10.0 miWNW (300°)10.4 mph19.6 mphOvercast
2:55 PM42.8 °F35.6 °F76 %29.87 in10.0 miWNW (300°)12.7 mph19.6 mphOvercast
3:15 PM42.8 °F35.6 °F76 %29.89 in10.0 miNW (310°)12.7 mph19.6 mphOvercast
3:35 PM42.8 °F35.6 °F76 %29.90 in10.0 miNNW (330°)9.2 mphOvercast
3:55 PM42.8 °F35.6 °F76 %29.91 in10.0 miNW (320°)9.2 mphOvercast
4:15 PM41.0 °F35.6 °F81 %29.92 in10.0 miNNW (330°)11.5 mphOvercast
4:35 PM41.0 °F35.6 °F81 %29.92 in10.0 miNW (310°)10.4 mphOvercast
4:55 PM41.0 °F33.8 °F76 %29.93 in10.0 miNW (310°)12.7 mphOvercast
5:15 PM41.0 °F33.8 °F76 %29.94 in10.0 miNNW (330°)10.4 mphOvercast
5:35 PM41.0 °F35.6 °F81 %29.94 in10.0 miNNW (340°)3.5 mphOvercast
5:55 PM41.0 °F33.8 °F76 %29.95 in10.0 miNNW (340°)3.5 mphOvercast
6:15 PM39.2 °F33.8 °F81 %29.94 in10.0 miNNW (340°)3.5 mphMostly Cloudy
6:35 PM39.2 °F33.8 °F81 %29.95 in10.0 miWNW (300°)3.5 mphScattered Clouds
6:55 PM37.4 °F33.8 °F87 %29.96 in10.0 miCalmClear
7:15 PM37.4 °F33.8 °F87 %29.97 in10.0 miWest (270°)3.5 mphClear
7:35 PM37.4 °F33.8 °F87 %29.97 in10.0 miWNW (290°)3.5 mphClear
7:55 PM37.4 °F35.6 °F93 %29.97 in10.0 miWNW (290°)3.5 mphMostly Cloudy
8:15 PM35.6 °F35.6 °F100 %29.98 in10.0 miWest (280°)4.6 mphOvercast
8:55 PM37.4 °F35.6 °F93 %29.99 in10.0 miWNW (290°)5.8 mphOvercast
9:15 PM37.4 °F35.6 °F93 %30.00 in10.0 miWNW (290°)3.5 mphOvercast
9:35 PM37.4 °F35.6 °F93 %30.00 in10.0 miWNW (290°)3.5 mphOvercast
9:55 PM37.4 °F33.8 °F87 %30.01 in10.0 miNW (320°)4.6 mphOvercast
10:15 PM37.4 °F33.8 °F87 %30.00 in10.0 miNW (310°)3.5 mphOvercast
10:35 PM39.2 °F33.8 °F81 %30.01 in10.0 miWest (280°)4.6 mphOvercast
10:55 PM37.4 °F35.6 °F93 %30.01 in10.0 miWNW (300°)3.5 mphOvercast
11:15 PM39.2 °F35.6 °F87 %30.00 in10.0 miCalmOvercast
11:35 PM39.2 °F35.6 °F87 %30.01 in10.0 miWNW (300°)4.6 mphOvercast
11:55 PM39.2 °F35.6 °F87 %30.01 in10.0 miWNW (290°)4.6 mphOvercast
Hourly data recorded from K8A0, located miles away from Walnut Grove, Alabama







STORIES FROM OUR PARTNERS